Temp
10 10 10 10 10 10 9 9 8 7 6 6 7 7 7 7 7 7 6 6 5 5 5 4 4 4 4 4 4 3 3 3 3 2 2 2 2 1 1 1 0 0 -0 -0 -0 -0 -0 -1 -1 -1 -1 -1 -1 -1 -1 -1 -1 -1 -1 -1 -2 -2 -2 -2 -2 -2 -2 -2 -2
10 10 10 10 9 9 9 8 8 7 6 5 6 7 7 7 6 6 5 5 4 4 4 4 4 4 4 3 3 3 3 3 2 2 2 2 1 1 1 0 0 -0 -0 -0 -0 -0 -0 -1 -1 -1 -1 -1 -1 -1 -2 -2 -2 -1 -2 -2 -2 -2 -2 -2 -2 -2 -2 -2 -2
10 9 9 9 9 8 8 7 7 6 5 5 5 6 6 6 6 5 5 4 4 4 4 4 4 4 4 3 3 3 2 2 2 2 1 1 1 1 0 0 -0 -0 -0 -0 -0 -0 -0 -1 -1 -1 -1 -1 -1 -1 -2 -2 -2 -2 -2 -2 -2 -2 -2 -2 -2 -2 -2 -3 -3
9 9 9 9 8 7 7 7 7 6 5 4 4 5 5 5 5 5 4 4 4 4 3 4 4 3 3 3 3 2 2 2 2 1 1 1 0 0 0 -0 -0 -0 -0 -0 -0 -0 -0 -1 -1 -1 -1 -1 -1 -1 -2 -2 -2 -2 -2 -2 -2 -2 -2 -3 -3 -3 -3 -3 -3
9 9 9 8 7 7 7 7 6 5 4 3 3 4 5 5 5 5 4 4 4 3 3 3 3 3 3 3 2 2 2 2 1 1 0 0 0 -0 -0 -0 -0 -0 -0 -0 -0 -0 -1 -1 -1 -1 -1 -1 -1 -1 -2 -2 -2 -2 -2 -2 -2 -2 -3 -3 -3 -3 -3 -3 -3
9 8 8 7 7 7 6 6 5 4 3 3 4 4 4 4 5 5 4 4 4 3 3 3 3 3 2 2 2 2 2 1 1 1 0 0 0 0 0 0 -0 -0 -0 -0 -0 -1 -1 -1 -1 -1 -1 -1 -2 -2 -2 -2 -2 -2 -2 -2 -2 -2 -3 -3 -3 -3 -3 -3 -3
8 7 7 7 7 7 6 6 5 3 3 4 4 4 4 4 4 4 4 4 4 3 3 3 2 2 2 2 2 2 1 1 1 0 0 0 0 0 0 0 -0 -0 -0 -0 -1 -1 -1 -1 -1 -1 -2 -2 -2 -2 -2 -2 -2 -2 -2 -2 -2 -3 -3 -3 -3 -3 -3 -3 -3
7 7 7 7 7 7 6 5 4 3 4 4 4 4 4 4 4 4 4 4 3 3 3 2 2 2 2 1 1 1 1 1 0 0 0 0 0 0 0 0 -0 -0 -1 -1 -1 -1 -1 -1 -2 -2 -2 -2 -2 -2 -2 -2 -2 -2 -2 -3 -3 -3 -3 -3 -3 -3 -3 -3 -4
7 7 7 7 7 6 5 4 4 4 4 4 4 4 4 4 4 3 3 3 3 3 3 2 2 2 1 1 1 1 1 0 0 0 0 0 0 0 0 -0 -0 -1 -1 -1 -1 -1 -1 -2 -2 -2 -2 -2 -2 -2 -2 -2 -2 -2 -2 -3 -3 -3 -3 -3 -3 -3 -3 -4 -4
7 7 6 6 6 5 4 4 4 4 4 4 3 3 3 3 3 3 3 3 3 3 2 2 2 2 1 1 1 1 0 0 0 0 0 0 0 -0 -0 -0 -1 -1 -1 -1 -1 -1 -2 -2 -2 -2 -2 -2 -2 -2 -2 -2 -2 -2 -3 -3 -3 -3 -3 -3 -3 -3 -4 -4 -4
6 6 6 6 5 4 4 4 4 4 3 3 3 3 3 3 3 3 3 3 3 2 2 2 2 2 1 1 1 0 0 0 0 0 0 -0 -0 -0 -0 -0 -1 -1 -1 -1 -1 -2 -2 -2 -2 -2 -2 -2 -2 -2 -2 -2 -2 -3 -3 -3 -3 -3 -3 -4 -4 -4 -4 -4 -4
6 6 5 5 4 4 4 3 3 3 3 3 3 3 3 3 3 2 2 2 2 2 2 2 2 1 1 1 1 0 0 0 0 0 -0 -0 -0 -0 -0 -1 -1 -1 -1 -1 -2 -2 -2 -2 -2 -2 -2 -2 -2 -2 -2 -2 -2 -3 -3 -3 -3 -3 -4 -4 -4 -4 -4 -4 -4
6 5 5 4 4 3 3 3 3 3 3 3 3 3 3 3 3 2 2 2 2 2 2 2 2 1 1 1 1 1 0 0 0 0 -0 -0 -0 -0 -1 -1 -1 -1 -2 -2 -2 -2 -2 -2 -2 -2 -2 -2 -2 -2 -2 -3 -3 -3 -3 -3 -3 -3 -4 -4 -4 -4 -4 -4 -4
5 5 4 4 4 3 3 3 3 3 3 3 3 3 3 3 2 2 2 2 2 2 2 2 2 1 1 1 1 1 1 0 0 0 -0 -0 -0 -1 -1 -1 -1 -2 -2 -2 -2 -2 -2 -2 -2 -2 -2 -2 -2 -2 -3 -3 -3 -3 -3 -3 -3 -4 -4 -4 -4 -4 -4 -4 -4
5 5 4 4 4 3 3 3 3 3 3 3 3 3 3 3 2 2 2 2 2 2 2 2 1 1 1 1 1 1 1 0 0 -0 -0 -0 -1 -1 -1 -1 -1 -2 -2 -2 -2 -2 -2 -2 -2 -2 -2 -2 -2 -3 -3 -3 -3 -3 -3 -3 -4 -4 -4 -4 -4 -4 -4 -4 -4
5 4 4 4 3 3 3 3 3 3 3 3 3 3 3 3 2 2 2 2 2 2 1 1 1 1 1 1 1 0 0 0 -0 -0 -0 -1 -1 -1 -1 -1 -2 -2 -2 -2 -2 -2 -2 -2 -2 -2 -2 -3 -3 -3 -3 -3 -3 -3 -4 -4 -4 -4 -4 -4 -4 -4 -4 -4 -5
5 4 4 4 3 3 3 3 3 3 3 3 3 3 3 2 2 2 2 2 2 1 1 1 1 1 1 1 0 0 0 -0 -0 -0 -1 -1 -1 -1 -1 -1 -2 -2 -2 -2 -2 -2 -2 -2 -2 -3 -3 -3 -3 -3 -3 -3 -3 -4 -4 -4 -4 -4 -4 -4 -4 -4 -5 -5 -5
5 4 4 3 3 3 3 3 3 3 3 3 3 2 2 2 2 2 2 2 1 1 1 1 1 1 0 0 0 0 -0 -0 -0 -0 -1 -1 -1 -1 -1 -1 -2 -2 -2 -2 -2 -2 -2 -2 -3 -3 -3 -3 -3 -3 -3 -3 -4 -4 -4 -4 -4 -4 -4 -4 -4 -5 -5 -5 -5
5 4 4 3 3 3 3 3 3 3 3 2 2 2 2 2 2 2 2 2 1 1 1 1 1 0 0 0 -0 -0 -0 -0 -0 -1 -1 -1 -1 -1 -1 -1 -2 -2 -2 -2 -2 -2 -2 -3 -3 -3 -3 -3 -4 -4 -4 -4 -4 -4 -4 -4 -4 -4 -4 -4 -5 -5 -5 -5 -5
4 4 3 3 3 3 3 3 3 3 3 2 2 2 2 2 2 2 2 1 1 1 1 1 1 0 0 0 -0 -0 -0 -0 -0 -1 -1 -1 -1 -1 -1 -1 -2 -2 -2 -2 -2 -2 -3 -3 -3 -3 -3 -4 -4 -4 -4 -4 -4 -4 -4 -4 -4 -4 -5 -5 -5 -5 -5 -5 -5
4 4 3 3 3 3 3 3 3 3 2 2 2 2 2 2 2 1 1 1 1 1 1 0 0 0 0 0 -0 -0 -0 -0 -1 -1 -1 -1 -1 -1 -1 -2 -2 -2 -2 -2 -2 -2 -3 -3 -3 -3 -4 -4 -4 -4 -4 -4 -4 -4 -4 -4 -4 -5 -5 -5 -5 -5 -5 -5 -5
4 3 3 3 3 3 3 3 3 3 2 2 2 2 2 1 1 1 1 1 1 0 0 0 0 0 0 -0 -0 -0 -0 -1 -1 -1 -1 -1 -1 -2 -2 -2 -2 -2 -2 -2 -2 -2 -3 -3 -3 -4 -4 -4 -4 -4 -4 -4 -4 -4 -4 -4 -5 -5 -5 -5 -5 -5 -5 -5 -6
3 3 3 3 3 3 3 3 3 2 2 2 2 2 1 1 1 1 1 0 0 0 0 0 0 0 0 -0 -0 -0 -1 -1 -1 -1 -1 -1 -1 -2 -2 -2 -2 -2 -2 -2 -2 -3 -3 -3 -4 -4 -4 -4 -4 -4 -4 -4 -4 -4 -5 -5 -5 -5 -5 -5 -5 -5 -5 -6 -6
3 3 3 3 3 3 3 2 2 2 2 2 1 1 1 1 0 0 0 0 0 0 0 0 0 0 0 -0 -0 -0 -1 -1 -1 -1 -1 -1 -2 -2 -2 -2 -2 -2 -2 -2 -2 -3 -3 -4 -4 -4 -4 -4 -4 -4 -4 -4 -4 -5 -5 -5 -5 -5 -5 -5 -5 -5 -6 -6 -7
3 3 3 3 3 3 2 2 2 2 2 1 1 1 0 0 0 0 0 0 0 0 0 0 0 0 0 -0 -0 -0 -1 -1 -1 -1 -1 -1 -2 -2 -2 -2 -2 -2 -2 -2 -3 -3 -4 -4 -4 -4 -4 -4 -4 -4 -4 -4 -5 -5 -5 -5 -5 -5 -5 -5 -5 -6 -6 -7 -7
3 3 3 3 3 2 2 2 2 2 1 1 0 0 0 0 0 0 0 0 0 0 0 0 0 0 -0 -0 -0 -0 -1 -1 -1 -1 -1 -2 -2 -2 -2 -2 -2 -2 -2 -2 -3 -3 -4 -4 -4 -4 -4 -4 -4 -4 -4 -5 -5 -5 -5 -5 -5 -5 -5 -5 -6 -6 -6 -7 -8
3 3 3 3 2 2 2 2 1 1 1 0 0 0 0 0 0 0 0 0 0 0 0 0 0 -0 -0 -0 -0 -1 -1 -1 -1 -1 -2 -2 -2 -2 -3 -3 -2 -2 -2 -2 -3 -3 -4 -4 -4 -4 -4 -4 -4 -4 -4 -5 -5 -5 -5 -5 -5 -5 -6 -6 -6 -6 -7 -7 -8
3 3 3 2 2 2 2 1 1 1 1 0 0 0 0 0 0 -0 0 0 0 0 0 -0 -0 -0 -0 -1 -1 -1 -1 -1 -1 -2 -2 -2 -2 -3 -3 -3 -3 -2 -2 -3 -3 -4 -4 -4 -4 -4 -4 -4 -4 -4 -5 -5 -5 -5 -5 -5 -5 -6 -6 -6 -6 -7 -7 -8 -8
3 2 2 2 2 2 1 1 1 1 1 0 0 0 0 -0 -0 -0 -0 0 0 0 -0 -0 -0 -1 -1 -1 -1 -1 -1 -1 -2 -2 -2 -2 -3 -3 -3 -3 -3 -3 -3 -3 -3 -4 -4 -4 -4 -4 -4 -4 -4 -5 -5 -5 -5 -5 -5 -6 -6 -6 -6 -6 -6 -7 -7 -8 -8
2 2 2 2 1 1 1 1 1 1 0 0 0 -0 -0 -0 -0 -0 -0 -0 0 -0 -0 -0 -1 -1 -1 -1 -1 -1 -2 -2 -2 -2 -3 -3 -3 -3 -3 -3 -3 -3 -3 -3 -3 -4 -4 -4 -4 -4 -4 -5 -5 -5 -5 -5 -5 -5 -6 -6 -6 -6 -6 -6 -7 -7 -7 -8 -8
2 2 2 2 1 1 1 1 1 0 0 -0 -0 -0 -0 -0 -0 -0 -0 -0 -0 -0 -0 -0 -1 -1 -1 -1 -1 -1 -2 -2 -2 -3 -3 -3 -3 -3 -3 -3 -3 -3 -3 -3 -3 -4 -4 -4 -4 -4 -5 -5 -5 -5 -5 -5 -5 -6 -6 -6 -6 -6 -6 -6 -7 -7 -7 -7 -8
2 2 2 1 1 1 1 1 0 0 -0 -0 -0 -0 -0 -0 -0 -0 -0 -0 -0 -0 -0 -1 -1 -1 -1 -1 -1 -2 -2 -2 -2 -3 -3 -3 -3 -3 -4 -3 -3 -3 -3 -3 -4 -4 -4 -4 -4 -5 -5 -5 -5 -5 -5 -5 -6 -6 -6 -6 -6 -6 -6 -6 -7 -7 -7 -7 -8
2 1 1 1 1 1 1 0 0 -0 -0 -0 -0 -0 -0 -0 -0 -0 -0 -0 -0 -0 -0 -1 -1 -1 -1 -1 -1 -2 -2 -2 -2 -3 -3 -3 -3 -4 -4 -4 -3 -3 -3 -4 -4 -4 -4 -4 -5 -5 -5 -5 -5 -5 -5 -6 -6 -6 -6 -6 -6 -6 -7 -7 -7 -7 -7 -7 -8
1 1 1 1 1 1 0 0 -0 -0 -0 -0 -0 -0 -0 -0 -0 -0 -0 -0 -0 -1 -1 -1 -1 -1 -1 -1 -1 -2 -2 -2 -3 -3 -3 -3 -3 -4 -4 -4 -3 -3 -4 -4 -4 -4 -4 -5 -5 -5 -5 -5 -5 -6 -6 -6 -6 -6 -6 -6 -6 -7 -7 -7 -7 -7 -7 -7 -8
1 1 1 1 1 1 0 0 -0 -0 -0 -0 -0 -0 -0 -0 -0 -0 -0 -1 -1 -1 -1 -1 -1 -1 -1 -1 -2 -2 -2 -3 -3 -3 -3 -3 -4 -4 -4 -4 -4 -4 -4 -4 -4 -4 -5 -5 -5 -5 -5 -6 -6 -6 -6 -6 -6 -6 -6 -6 -7 -7 -7 -7 -7 -7 -7 -8 -8
1 2 2 1 1 1 0 0 -0 -0 -0 -0 -0 -0 -0 -0 -0 -0 -1 -1 -1 -1 -1 -1 -1 -1 -1 -2 -2 -2 -3 -3 -3 -3 -3 -4 -4 -4 -4 -4 -4 -4 -4 -4 -5 -5 -5 -5 -5 -5 -6 -6 -6 -6 -6 -6 -6 -6 -6 -7 -7 -7 -7 -7 -7 -7 -8 -8 -8
2 2 2 1 1 1 0 0 -0 -0 -0 -0 -0 -0 -0 -0 -1 -1 -1 -1 -1 -1 -1 -1 -1 -1 -2 -2 -2 -3 -3 -3 -3 -3 -4 -4 -4 -4 -4 -4 -4 -4 -4 -5 -5 -5 -5 -5 -5 -6 -6 -6 -6 -6 -6 -6 -6 -6 -6 -7 -7 -7 -7 -7 -7 -8 -8 -8 -8
2 2 1 1 1 0 0 -0 -0 -0 -0 -0 -0 -0 -0 -1 -1 -1 -1 -1 -1 -1 -1 -1 -2 -2 -2 -2 -3 -3 -3 -3 -3 -3 -4 -4 -4 -4 -4 -4 -4 -4 -5 -5 -5 -5 -5 -5 -5 -6 -6 -6 -6 -6 -6 -6 -6 -6 -7 -7 -7 -7 -7 -7 -7 -8 -8 -8 -8
2 1 1 1 0 -0 -0 -0 -0 -0 -0 -0 -0 -1 -1 -1 -1 -1 -1 -1 -1 -1 -2 -2 -2 -2 -2 -2 -3 -3 -3 -3 -3 -3 -3 -4 -4 -4 -4 -4 -4 -4 -5 -5 -5 -5 -5 -5 -5 -6 -6 -6 -6 -6 -6 -6 -6 -7 -7 -7 -7 -7 -7 -7 -8 -8 -8 -8 -8
1 1 0 0 -0 -0 -0 -0 -0 -0 -0 -0 -1 -1 -1 -1 -1 -1 -1 -1 -2 -2 -2 -2 -2 -2 -2 -3 -3 -3 -3 -3 -3 -3 -3 -4 -4 -4 -4 -4 -4 -5 -5 -5 -5 -5 -5 -5 -5 -6 -6 -6 -6 -7 -7 -7 -7 -7 -7 -7 -7 -7 -7 -7 -8 -8 -8 -8 -8
1 0 0 -0 -0 0 0 -0 -0 -0 -0 -1 -1 -1 -1 -1 -1 -1 -1 -2 -2 -2 -2 -2 -2 -2 -3 -3 -3 -3 -3 -3 -3 -3 -3 -4 -4 -4 -4 -4 -5 -5 -5 -5 -5 -5 -5 -5 -6 -6 -6 -6 -6 -7 -7 -7 -7 -7 -7 -7 -7 -7 -7 -7 -7 -8 -8 -8 -8
Height
1549 1549 1549 1550 1550 1551 1551 1551 1551 1551 1552 1553 1554 1554 1553 1552 1551 1551 1550 1550 1550 1550 1549 1549 1548 1548 1547 1547 1546 1545 1545 1544 1544 1543 1542 1542 1541 1541 1540 1539 1539 1538 1537 1536 1536 1535 1535 1535 1534 1534 1534 1533 1533 1532 1532 1532 1532 1533 1533 1532 1532 1531 1531 1530 1529 1529 1528 1527 1527
1548 1549 1549 1549 1550 1550 1550 1549 1549 1549 1550 1552 1553 1553 1553 1552 1551 1550 1550 1550 1549 1549 1549 1548 1548 1547 1547 1546 1545 1545 1544 1544 1543 1543 1542 1542 1541 1540 1540 1539 1538 1538 1537 1536 1535 1535 1534 1534 1534 1533 1533 1533 1532 1532 1531 1531 1531 1531 1531 1531 1531 1530 1529 1529 1528 1528 1527 1526 1525
1548 1548 1549 1549 1549 1549 1548 1548 1547 1548 1549 1550 1552 1553 1553 1552 1551 1551 1550 1549 1549 1549 1548 1548 1547 1547 1546 1546 1545 1544 1544 1543 1543 1542 1542 1541 1541 1540 1539 1539 1538 1537 1536 1535 1535 1534 1534 1533 1533 1533 1532 1532 1532 1531 1531 1531 1530 1530 1530 1530 1529 1529 1529 1528 1527 1527 1526 1525 1524
1547 1547 1547 1547 1547 1547 1547 1546 1546 1547 1548 1549 1550 1551 1552 1551 1551 1550 1550 1549 1549 1548 1548 1547 1547 1546 1546 1545 1545 1544 1544 1543 1542 1542 1541 1541 1540 1540 1539 1538 1538 1537 1536 1535 1534 1534 1533 1532 1532 1532 1531 1531 1531 1531 1530 1530 1530 1529 1529 1529 1529 1528 1527 1527 1526 1526 1525 1524 1523
1545 1545 1546 1546 1545 1545 1545 1545 1545 1545 1545 1546 1548 1549 1550 1550 1550 1549 1549 1549 1548 1548 1547 1547 1546 1546 1545 1545 1544 1544 1543 1543 1542 1542 1541 1541 1540 1539 1539 1538 1537 1537 1536 1535 1534 1533 1532 1532 1531 1531 1530 1530 1530 1530 1529 1529 1529 1529 1529 1528 1528 1527 1526 1526 1525 1524 1524 1523 1522
1544 1544 1544 1544 1544 1544 1544 1544 1544 1544 1544 1546 1547 1548 1548 1548 1548 1549 1549 1548 1548 1547 1547 1546 1545 1545 1544 1544 1544 1543 1543 1542 1542 1541 1541 1540 1540 1539 1539 1538 1537 1536 1535 1535 1534 1533 1532 1531 1530 1530 1529 1529 1529 1529 1529 1528 1528 1528 1528 1528 1527 1526 1525 1524 1524 1523 1522 1521 1520
1543 1543 1543 1543 1543 1543 1543 1543 1543 1543 1545 1546 1546 1546 1547 1547 1547 1547 1548 1548 1547 1546 1546 1545 1545 1544 1544 1543 1543 1542 1542 1542 1541 1541 1540 1540 1539 1539 1538 1538 1537 1536 1535 1534 1533 1532 1531 1530 1530 1529 1529 1529 1528 1528 1528 1527 1527 1527 1527 1526 1526 1525 1524 1523 1522 1522 1521 1520 1519
1542 1542 1542 1542 1543 1543 1543 1542 1542 1544 1545 1545 1546 1546 1546 1546 1547 1547 1547 1547 1546 1546 1545 1545 1544 1544 1543 1543 1542 1542 1541 1541 1540 1540 1539 1539 1539 1538 1538 1537 1536 1535 1534 1534 1533 1532 1531 1530 1529 1529 1528 1528 1527 1527 1527 1527 1527 1526 1526 1525 1524 1524 1523 1522 1521 1520 1519 1519 1518
1541 1541 1542 1542 1542 1542 1542 1542 1543 1544 1544 1544 1545 1545 1546 1546 1546 1546 1546 1546 1545 1545 1545 1544 1544 1543 1543 1542 1542 1541 1540 1540 1539 1539 1538 1538 1538 1537 1537 1536 1535 1534 1534 1533 1532 1531 1531 1530 1529 1528 1527 1527 1527 1527 1526 1526 1526 1525 1525 1524 1523 1522 1521 1520 1520 1519 1518 1517 1516
1540 1541 1541 1541 1541 1541 1541 1542 1543 1544 1544 1544 1544 1545 1545 1545 1545 1545 1545 1544 1544 1544 1544 1543 1543 1542 1542 1541 1541 1540 1539 1539 1538 1538 1537 1537 1536 1536 1536 1535 1534 1534 1533 1532 1532 1531 1530 1529 1529 1528 1527 1527 1527 1526 1526 1526 1525 1524 1524 1523 1522 1521 1520 1519 1518 1518 1517 1516 1515
1540 1540 1540 1540 1540 1541 1541 1542 1542 1543 1543 1543 1543 1544 1544 1544 1544 1544 1543 1543 1543 1542 1542 1541 1541 1541 1541 1540 1539 1539 1538 1538 1537 1536 1536 1536 1535 1535 1535 1534 1534 1533 1532 1531 1531 1530 1530 1529 1529 1528 1527 1526 1526 1526 1525 1524 1524 1523 1522 1521 1520 1519 1519 1518 1517 1516 1515 1514 1514
1539 1540 1540 1540 1540 1541 1541 1541 1541 1542 1542 1542 1542 1542 1542 1542 1542 1542 1541 1541 1541 1541 1540 1540 1540 1540 1539 1539 1539 1538 1537 1537 1536 1535 1535 1534 1534 1534 1534 1533 1533 1532 1531 1531 1530 1530 1530 1529 1528 1527 1526 1526 1525 1525 1524 1524 1523 1522 1521 1520 1519 1518 1517 1516 1515 1514 1514 1513 1512
1539 1539 1539 1539 1540 1540 1541 1541 1541 1541 1542 1542 1542 1542 1541 1541 1541 1540 1540 1540 1540 1540 1539 1539 1539 1539 1539 1538 1538 1537 1537 1536 1535 1534 1534 1534 1533 1533 1533 1532 1532 1531 1530 1530 1530 1529 1529 1529 1528 1527 1525 1525 1524 1524 1523 1522 1521 1520 1519 1519 1518 1517 1516 1515 1514 1513 1512 1511 1510
1539 1539 1539 1539 1540 1540 1540 1541 1541 1541 1541 1541 1541 1541 1541 1541 1540 1540 1539 1539 1539 1539 1539 1539 1538 1538 1538 1537 1537 1536 1536 1535 1534 1534 1533 1533 1532 1532 1531 1531 1531 1530 1530 1529 1529 1529 1529 1528 1527 1526 1524 1524 1523 1523 1522 1521 1520 1519 1519 1517 1516 1515 1515 1514 1513 1512 1511 1510 1509
1538 1538 1539 1539 1539 1540 1540 1540 1540 1540 1541 1541 1541 1541 1541 1540 1540 1540 1539 1539 1539 1539 1538 1538 1537 1537 1536 1536 1536 1535 1535 1534 1534 1533 1532 1532 1531 1531 1530 1530 1529 1529 1529 1529 1528 1528 1528 1527 1526 1525 1524 1523 1522 1522 1521 1520 1519 1518 1517 1516 1515 1514 1514 1513 1511 1510 1509 1509 1507
1537 1538 1538 1539 1539 1539 1539 1540 1540 1540 1540 1540 1540 1540 1540 1540 1540 1540 1539 1539 1538 1538 1538 1537 1536 1536 1535 1535 1534 1534 1534 1533 1533 1532 1531 1531 1530 1530 1529 1529 1529 1528 1528 1528 1527 1527 1526 1526 1525 1524 1523 1522 1521 1521 1520 1519 1518 1517 1516 1515 1514 1513 1512 1511 1510 1509 1508 1507 1506
1537 1537 1538 1538 1538 1539 1539 1539 1539 1540 1540 1540 1540 1540 1540 1540 1539 1539 1539 1538 1538 1537 1536 1536 1535 1535 1534 1534 1533 1533 1532 1532 1531 1531 1530 1529 1529 1529 1528 1528 1528 1527 1527 1526 1526 1525 1525 1524 1524 1523 1522 1521 1520 1519 1519 1518 1517 1516 1515 1514 1513 1512 1511 1510 1509 1508 1507 1505 1504
1536 1537 1537 1537 1538 1538 1539 1539 1539 1539 1539 1539 1539 1539 1539 1539 1539 1539 1538 1538 1537 1536 1536 1535 1534 1534 1533 1533 1532 1532 1531 1531 1530 1529 1529 1529 1528 1528 1527 1527 1526 1526 1526 1525 1525 1524 1524 1523 1522 1521 1521 1520 1519 1518 1518 1517 1516 1515 1514 1513 1512 1511 1510 1509 1508 1507 1505 1504 1502
1536 1536 1536 1536 1537 1538 1538 1539 1539 1539 1539 1539 1539 1539 1539 1539 1538 1538 1538 1537 1537 1536 1535 1535 1534 1533 1533 1532 1531 1530 1530 1529 1529 1528 1528 1528 1527 1527 1526 1526 1525 1525 1524 1524 1523 1523 1522 1521 1520 1520 1519 1518 1518 1517 1516 1515 1514 1514 1513 1512 1511 1509 1509 1508 1506 1505 1504 1502 1500
1535 1535 1535 1536 1536 1537 1538 1538 1538 1538 1538 1538 1538 1538 1538 1538 1537 1537 1537 1536 1536 1535 1535 1534 1534 1533 1532 1531 1530 1529 1529 1528 1528 1527 1527 1526 1526 1525 1525 1524 1524 1523 1523 1522 1522 1521 1520 1519 1519 1518 1517 1516 1516 1515 1515 1514 1513 1512 1511 1510 1509 1509 1507 1506 1505 1504 1502 1500 1499
1534 1534 1535 1536 1536 1537 1537 1537 1537 1537 1537 1537 1537 1537 1537 1537 1536 1536 1536 1535 1535 1534 1534 1534 1533 1532 1531 1530 1529 1529 1528 1527 1527 1526 1526 1525 1525 1524 1524 1523 1522 1522 1521 1520 1520 1519 1518 1518 1517 1516 1515 1515 1514 1514 1513 1513 1512 1511 1510 1509 1508 1507 1506 1504 1503 1501 1500 1498 1497
1533 1534 1534 1535 1536 1536 1536 1536 1536 1536 1536 1536 1536 1536 1536 1536 1535 1535 1534 1534 1534 1533 1533 1532 1532 1531 1530 1529 1529 1528 1527 1526 1526 1525 1524 1524 1523 1523 1522 1521 1521 1520 1519 1519 1518 1517 1516 1516 1515 1514 1514 1514 1513 1513 1512 1511 1510 1509 1508 1507 1506 1505 1504 1503 1501 1499 1498 1496 1495
1532 1533 1534 1534 1534 1535 1535 1535 1535 1536 1536 1536 1535 1535 1535 1534 1534 1534 1533 1533 1533 1532 1532 1531 1531 1530 1529 1529 1528 1527 1526 1525 1525 1524 1523 1523 1522 1521 1520 1519 1519 1518 1517 1517 1516 1515 1515 1514 1513 1513 1513 1512 1512 1511 1510 1509 1509 1508 1507 1506 1504 1503 1502 1501 1499 1498 1496 1495 1494
1532 1532 1532 1533 1533 1534 1534 1534 1535 1535 1535 1535 1534 1534 1534 1533 1533 1533 1532 1532 1532 1531 1531 1530 1530 1529 1529 1528 1527 1526 1525 1524 1524 1523 1522 1522 1521 1520 1519 1518 1517 1516 1516 1515 1515 1514 1514 1513 1512 1512 1512 1511 1511 1510 1509 1508 1507 1506 1505 1504 1503 1501 1500 1499 1497 1496 1494 1493 1492
1530 1531 1531 1532 1532 1533 1533 1534 1534 1534 1534 1534 1533 1533 1532 1532 1532 1531 1531 1531 1530 1530 1529 1529 1529 1528 1527 1527 1526 1525 1524 1524 1523 1522 1521 1520 1519 1518 1517 1516 1515 1515 1514 1514 1514 1513 1513 1512 1512 1511 1511 1510 1509 1509 1508 1507 1506 1505 1504 1502 1501 1499 1498 1497 1495 1494 1493 1491 1490
1529 1530 1530 1531 1531 1532 1532 1533 1533 1533 1532 1532 1531 1531 1531 1531 1531 1530 1530 1529 1529 1529 1528 1528 1527 1526 1526 1525 1525 1524 1523 1522 1521 1520 1519 1518 1517 1516 1515 1514 1514 1513 1513 1513 1512 1512 1512 1511 1511 1510 1509 1509 1508 1507 1506 1505 1504 1503 1502 1501 1499 1498 1496 1495 1493 1492 1491 1490 1489
1529 1529 1529 1529 1530 1530 1531 1531 1531 1530 1530 1530 1530 1530 1530 1530 1529 1529 1529 1528 1528 1527 1527 1526 1525 1525 1524 1524 1523 1523 1522 1521 1520 1519 1518 1516 1515 1514 1514 1513 1513 1512 1512 1511 1511 1511 1511 1510 1510 1509 1508 1508 1507 1506 1505 1504 1503 1502 1500 1499 1498 1496 1495 1493 1492 1490 1489 1488 1487
1528 1528 1528 1528 1529 1529 1529 1529 1529 1529 1529 1529 1529 1529 1529 1529 1528 1528 1527 1527 1526 1526 1525 1524 1524 1524 1523 1522 1521 1521 1520 1519 1519 1517 1516 1514 1514 1513 1512 1511 1511 1511 1510 1510 1510 1509 1509 1509 1509 1508 1507 1506 1505 1504 1503 1502 1501 1500 1499 1498 1497 1495 1494 1492 1490 1489 1488 1487 1486
1526 1527 1527 1527 1527 1527 1527 1527 1528 1528 1528 1528 1529 1529 1528 1528 1527 1527 1526 1526 1525 1524 1524 1523 1522 1522 1521 1520 1520 1519 1519 1518 1517 1515 1514 1513 1512 1511 1510 1510 1510 1509 1509 1509 1509 1508 1508 1508 1508 1507 1506 1505 1504 1503 1502 1501 1500 1499 1498 1497 1495 1494 1492 1491 1489 1488 1487 1485 1484
1525 1525 1525 1525 1525 1526 1526 1527 1527 1528 1528 1528 1528 1527 1527 1526 1526 1525 1525 1524 1524 1523 1522 1522 1521 1520 1520 1519 1518 1518 1517 1516 1514 1514 1512 1511 1510 1509 1509 1508 1509 1508 1508 1508 1508 1507 1507 1507 1506 1506 1505 1504 1503 1502 1501 1500 1499 1498 1497 1495 1494 1493 1491 1489 1488 1487 1486 1484 1483
1524 1524 1524 1524 1525 1525 1526 1527 1527 1527 1527 1527 1526 1526 1525 1525 1525 1524 1524 1523 1522 1522 1521 1520 1520 1519 1518 1518 1517 1516 1515 1514 1513 1513 1512 1510 1509 1509 1508 1507 1507 1507 1507 1507 1507 1506 1506 1506 1505 1504 1504 1503 1502 1501 1500 1499 1498 1497 1496 1494 1493 1491 1490 1489 1487 1486 1485 1484 1482
1523 1524 1524 1524 1525 1525 1526 1526 1526 1526 1525 1525 1525 1524 1524 1524 1524 1523 1522 1522 1521 1520 1519 1519 1518 1518 1517 1516 1515 1514 1514 1513 1512 1511 1511 1510 1509 1508 1507 1506 1507 1507 1506 1506 1506 1505 1505 1505 1504 1504 1503 1502 1501 1500 1499 1498 1497 1496 1495 1494 1492 1490 1489 1488 1486 1485 1484 1483 1482
1523 1523 1524 1524 1525 1525 1525 1525 1525 1524 1524 1524 1524 1523 1523 1522 1522 1521 1521 1520 1519 1519 1518 1517 1517 1516 1516 1515 1514 1513 1512 1512 1511 1510 1510 1509 1508 1507 1506 1506 1506 1506 1506 1505 1505 1505 1504 1504 1504 1503 1502 1501 1500 1499 1498 1497 1496 1495 1494 1493 1491 1490 1489 1487 1486 1484 1483 1482 1481
1522 1523 1524 1524 1524 1524 1524 1524 1524 1523 1523 1523 1522 1522 1522 1521 1520 1520 1519 1519 1518 1517 1517 1516 1515 1515 1514 1514 1513 1512 1511 1510 1509 1509 1509 1509 1508 1506 1505 1505 1505 1505 1505 1504 1504 1504 1504 1503 1503 1502 1501 1500 1499 1498 1497 1496 1495 1494 1493 1492 1490 1489 1488 1486 1485 1484 1483 1481 1480
1522 1523 1523 1523 1523 1523 1523 1522 1522 1522 1522 1521 1521 1520 1520 1519 1519 1518 1518 1517 1516 1516 1515 1515 1514 1514 1513 1513 1511 1510 1509 1509 1509 1508 1508 1508 1507 1506 1505 1504 1504 1504 1504 1504 1504 1503 1503 1503 1502 1501 1500 1499 1498 1497 1496 1495 1494 1493 1492 1491 1489 1488 1487 1486 1484 1483 1482 1481 1479
1522 1522 1522 1522 1522 1522 1521 1521 1521 1521 1520 1520 1519 1519 1519 1518 1517 1517 1516 1515 1515 1514 1514 1513 1513 1513 1512 1511 1510 1509 1509 1508 1508 1508 1507 1506 1506 1505 1504 1504 1504 1504 1503 1503 1503 1503 1502 1502 1501 1500 1499 1498 1497 1496 1495 1494 1493 1492 1491 1490 1489 1488 1486 1485 1484 1483 1481 1480 1479
1521 1521 1521 1521 1521 1520 1520 1520 1520 1519 1519 1519 1518 1518 1517 1516 1516 1515 1515 1514 1514 1513 1513 1512 1512 1511 1510 1509 1509 1508 1508 1507 1507 1506 1506 1505 1505 1504 1504 1503 1503 1503 1502 1502 1502 1502 1501 1501 1500 1499 1498 1497 1496 1495 1494 1494 1492 1491 1490 1489 1488 1487 1485 1484 1483 1482 1481 1479 1478
1520 1520 1520 1520 1520 1519 1519 1519 1519 1518 1518 1517 1517 1516 1515 1515 1514 1514 1514 1513 1513 1512 1511 1511 1510 1510 1509 1509 1508 1507 1507 1506 1506 1506 1505 1505 1504 1504 1503 1502 1502 1501 1501 1501 1501 1501 1500 1500 1499 1498 1497 1496 1495 1494 1494 1493 1492 1490 1489 1488 1487 1486 1485 1484 1483 1481 1480 1479 1478
1519 1519 1519 1519 1519 1518 1518 1518 1517 1517 1516 1515 1515 1514 1514 1514 1513 1513 1512 1512 1511 1511 1510 1510 1509 1509 1508 1507 1507 1506 1506 1506 1505 1505 1504 1504 1504 1503 1502 1501 1501 1500 1500 1500 1500 1499 1499 1499 1498 1497 1496 1495 1494 1494 1493 1492 1491 1489 1489 1487 1486 1485 1484 1483 1482 1481 1480 1479 1477
1518 1518 1518 1518 1517 1517 1517 1516 1516 1515 1515 1514 1514 1513 1513 1512 1512 1511 1511 1511 1510 1510 1509 1509 1508 1507 1507 1506 1506 1506 1505 1505 1505 1504 1504 1503 1503 1502 1502 1501 1500 1499 1499 1499 1499 1498 1498 1497 1497 1496 1495 1494 1494 1493 1492 1491 1490 1489 1488 1487 1486 1484 1484 1483 1482 1480 1479 1478 1477
1517 1517 1517 1516 1516 1516 1515 1514 1514 1514 1513 1513 1512 1512 1511 1511 1511 1510 1510 1509 1509 1509 1508 1508 1507 1506 1506 1505 1505 1505 1504 1504 1504 1503 1503 1503 1502 1502 1501 1500 1499 1499 1498 1497 1497 1497 1496 1496 1495 1495 1494 1494 1493 1492 1491 1490 1489 1488 1487 1486 1485 1484 1483 1482 1481 1480 1479 1477 1476
Wind_Speed
15 14 14 13 13 12 11 11 10 11 12 14 16 17 16 15 14 13 13 12 12 12 12 11 11 11 12 13 13 14 14 14 14 14 13 12 11 10 8 7 7 8 8 9 10 10 11 12 12 13 14 15 17 18 19 19 20 20 18 16 15 15 16 17 18 19 19 20 21
13 13 13 13 13 13 13 12 12 11 11 12 14 15 15 14 13 12 11 10 10 10 10 11 11 11 12 12 12 13 13 13 13 13 13 12 10 9 7 6 7 7 8 9 10 11 11 12 13 13 14 14 15 16 18 19 20 20 19 17 16 16 17 18 19 20 21 22 23
13 12 12 12 12 12 11 10 10 9 8 10 12 13 13 12 11 10 10 9 9 10 10 10 11 11 12 12 12 12 13 13 13 12 12 11 10 9 7 7 7 8 9 10 11 12 13 13 14 14 15 15 16 17 18 19 19 19 18 17 16 17 18 19 20 21 22 23 23
12 12 11 10 10 9 8 8 7 7 7 8 10 11 11 11 10 9 9 9 9 9 10 10 11 12 12 12 12 13 13 12 12 11 10 10 9 9 8 8 9 10 11 12 13 14 15 15 16 16 16 17 17 18 18 18 18 17 16 16 17 17 18 18 19 20 22 22 23
12 11 10 9 7 6 6 6 7 6 6 6 9 10 11 11 10 9 8 8 8 9 10 11 12 12 13 13 13 13 12 11 10 9 9 9 9 9 9 10 11 12 13 15 15 16 17 17 16 16 16 16 17 17 17 16 15 15 15 16 16 17 17 18 19 20 21 22 22
11 10 9 7 6 5 6 8 8 6 4 6 9 11 11 10 8 7 7 7 8 9 11 12 13 13 14 14 13 12 11 10 9 8 8 9 10 10 11 12 14 15 16 17 18 17 17 16 15 14 14 14 14 14 14 14 14 14 15 16 16 17 17 18 19 20 21 21 21
10 9 8 7 7 8 10 12 9 5 4 8 11 11 10 9 7 7 7 8 9 10 11 11 12 13 13 13 13 12 11 10 9 9 9 10 11 12 13 15 16 18 18 18 17 16 15 14 13 13 13 13 14 14 14 15 15 15 16 17 17 18 19 19 20 20 21 21 20
10 9 9 9 10 13 14 11 6 2 6 9 10 10 8 7 7 7 8 9 10 10 10 10 11 11 11 12 12 11 11 10 10 10 11 12 13 14 15 17 18 19 18 17 15 14 13 13 13 14 15 15 15 16 16 16 16 16 16 17 18 19 19 20 21 21 21 20 20
10 9 10 11 13 13 10 5 1 3 6 7 8 8 7 7 7 8 10 10 10 10 9 9 9 10 10 10 11 11 11 11 11 11 12 14 15 16 17 18 19 18 17 15 13 13 13 14 14 15 15 16 16 16 16 16 16 17 17 18 19 19 20 20 21 21 21 21 21
9 9 10 12 12 9 5 2 2 3 4 6 7 8 8 8 9 10 10 11 11 10 9 9 9 9 9 10 10 10 11 11 12 13 14 15 16 17 18 19 18 17 15 13 13 13 13 14 14 15 15 15 16 16 16 16 16 17 17 18 19 19 19 20 20 21 21 22 22
9 9 10 10 8 4 2 1 1 2 3 4 6 7 8 9 9 10 10 11 11 11 10 10 10 9 8 8 9 10 11 12 13 14 15 17 18 18 19 19 17 15 13 12 12 13 13 14 15 15 15 15 15 16 16 16 17 17 18 18 19 19 19 19 20 20 21 23 24
9 9 8 7 3 1 1 1 1 1 2 3 5 6 8 9 9 9 10 10 11 11 12 12 12 11 9 9 9 10 12 13 14 15 16 18 19 19 19 18 16 14 12 12 12 13 14 14 15 15 15 15 15 15 16 17 17 18 18 18 18 19 20 21 21 22 23 24 26
8 7 6 4 1 1 2 2 3 3 3 4 5 6 8 8 8 8 8 9 10 11 12 13 13 13 11 10 10 11 12 14 15 16 17 18 19 20 19 17 14 13 12 12 12 13 14 14 15 15 15 15 15 16 16 17 18 19 19 19 20 21 22 23 24 25 25 27 29
7 6 4 3 3 3 4 5 5 5 6 6 6 7 7 8 8 8 8 8 9 11 13 15 15 14 13 12 12 12 13 15 16 17 18 19 19 19 18 15 13 12 12 12 13 14 15 15 16 16 16 16 16 17 18 19 20 20 21 22 23 24 24 25 26 26 28 30 32
7 6 5 5 6 6 5 6 6 7 8 8 8 8 8 8 8 9 9 10 11 13 14 16 16 16 14 13 13 14 15 16 17 17 18 18 18 17 16 14 12 12 12 13 14 15 16 17 17 17 17 17 18 18 19 20 21 21 22 23 24 25 25 26 26 28 30 32 34
6 6 6 7 7 7 6 6 7 7 8 9 9 9 9 9 9 10 10 11 12 14 15 16 16 15 15 15 15 15 16 17 17 18 17 17 16 15 13 13 13 13 14 15 16 17 18 18 19 19 19 20 20 20 20 20 21 22 22 23 24 25 26 27 28 30 32 33 35
7 7 7 8 7 7 6 6 7 8 8 9 9 9 9 9 9 10 10 11 13 14 14 15 15 15 15 16 16 17 18 18 18 18 17 15 14 13 13 14 14 16 16 17 18 19 19 20 20 20 21 21 21 21 20 20 20 21 22 23 24 25 27 28 29 31 33 34 35
8 8 8 8 7 6 6 6 7 7 8 8 8 8 8 8 9 10 10 11 12 13 14 14 14 15 16 17 18 18 19 19 19 18 17 15 14 14 14 15 16 17 18 19 20 20 21 21 21 21 21 20 20 19 19 19 20 21 22 24 25 26 28 29 30 32 33 34 36
9 8 7 6 5 5 6 6 7 7 7 7 7 7 8 8 9 10 11 12 12 13 14 14 15 15 16 17 18 18 19 19 19 18 17 15 15 15 16 17 18 19 19 20 21 21 21 22 21 21 20 19 18 18 18 19 20 22 23 25 26 27 29 30 31 32 33 35 35
9 7 4 4 4 5 6 7 7 7 7 7 7 8 8 9 11 11 12 12 12 13 14 15 16 16 17 18 18 19 19 19 19 18 17 16 16 17 18 19 19 19 20 20 21 22 22 22 22 21 20 18 17 18 19 20 22 24 25 26 27 28 29 30 31 33 34 35 35
6 3 3 4 5 7 8 8 8 8 8 8 8 9 10 11 11 11 11 11 12 13 14 15 16 17 18 18 19 19 19 19 18 18 18 18 18 19 19 20 20 20 20 21 22 23 23 23 22 20 18 17 17 18 20 22 23 25 26 26 27 28 29 30 32 34 34 34 32
3 4 5 6 8 9 9 9 8 8 8 9 10 10 10 10 11 11 11 11 12 13 14 15 16 16 17 18 18 18 18 18 18 18 18 18 18 19 20 20 20 20 21 22 23 24 24 22 19 17 16 16 18 20 21 23 24 25 25 26 27 28 30 32 33 33 33 32 29
5 6 8 10 11 10 9 9 8 8 9 9 9 9 9 9 10 10 10 11 12 12 13 14 15 15 16 16 16 17 17 17 17 17 17 18 19 19 20 20 20 21 22 24 26 25 23 20 17 15 16 18 19 21 22 23 24 25 25 27 28 30 32 33 33 32 31 28 25
8 10 11 12 11 10 9 8 7 8 8 8 8 8 8 9 9 10 10 11 11 12 13 14 14 15 15 15 15 16 16 16 17 17 18 18 19 20 20 20 20 22 24 25 26 24 20 17 16 16 17 19 20 21 22 23 24 25 26 28 30 32 32 32 31 30 28 25 21
12 12 12 11 10 8 7 6 6 7 7 7 7 8 8 9 9 10 11 11 12 13 14 15 15 16 16 16 16 16 17 17 18 19 19 20 21 21 21 21 21 22 24 24 23 20 17 15 16 17 18 19 20 21 22 23 25 26 29 30 31 32 31 31 30 28 25 22 19
13 13 11 9 8 6 5 5 6 6 7 7 8 9 9 9 10 11 12 13 14 15 16 17 18 18 18 18 18 18 19 19 20 20 21 22 22 22 21 20 21 22 22 22 20 17 15 15 16 17 18 19 20 22 23 25 27 29 30 31 31 30 30 29 28 26 24 21 19
12 11 9 8 6 4 5 6 6 7 8 9 9 10 10 11 12 12 13 15 16 18 19 20 20 20 20 20 20 20 20 20 20 21 22 23 22 20 19 19 20 21 21 21 18 16 15 15 16 17 18 19 21 23 25 28 29 30 30 29 28 28 28 27 26 25 23 21 20
11 10 8 6 5 6 7 7 8 10 11 11 10 11 12 12 13 14 15 17 18 20 21 21 21 21 21 21 21 20 20 20 20 21 22 21 19 18 18 19 19 20 20 20 18 16 15 15 16 17 19 21 23 26 28 29 30 29 28 27 26 26 26 26 25 23 22 21 21
10 8 7 6 7 8 8 9 11 13 12 11 11 12 13 13 14 16 17 19 20 21 21 21 21 21 21 22 21 21 20 19 20 20 19 18 17 16 17 18 19 20 20 19 18 16 16 16 17 18 20 23 25 27 29 29 28 27 25 24 24 24 24 24 23 22 22 21 22
9 7 7 8 8 8 9 11 12 12 12 12 12 13 14 14 16 18 19 20 20 20 20 19 20 21 22 22 22 22 21 19 18 16 15 14 14 15 16 17 18 19 19 19 18 18 17 17 18 20 22 25 27 28 28 26 25 24 23 23 23 23 23 22 22 21 21 21 22
8 8 8 8 8 8 10 12 12 12 12 13 13 14 15 16 18 19 19 19 18 18 18 18 20 21 22 23 23 23 21 18 16 13 12 12 12 13 14 16 17 18 19 20 19 18 18 18 20 22 24 26 27 27 25 23 22 21 21 22 22 22 21 21 20 20 20 20 20
8 9 8 7 8 9 11 12 12 12 13 13 14 15 17 19 19 19 18 17 16 17 18 19 20 21 21 22 22 21 19 17 15 13 12 12 11 12 13 15 16 18 19 19 19 18 18 19 21 24 26 27 26 24 22 20 20 20 20 21 21 20 20 19 19 19 18 18 18
8 8 7 7 9 10 12 12 13 13 14 15 16 18 19 19 18 17 16 16 17 18 20 20 21 21 21 20 19 18 16 15 14 14 13 12 12 12 13 14 17 19 19 19 18 18 19 21 23 25 26 25 24 21 19 19 19 19 20 20 19 19 19 18 18 18 17 17 16
7 6 7 9 11 12 12 13 14 15 16 17 19 19 19 17 16 16 16 17 19 20 21 21 21 21 21 20 18 16 15 14 13 12 12 11 12 12 13 15 17 19 19 18 17 18 20 22 24 25 24 23 21 19 18 18 18 19 19 19 18 18 18 17 17 17 16 16 15
6 8 10 12 13 14 14 15 15 17 18 19 19 18 16 15 15 16 18 20 21 21 21 20 20 20 19 18 17 16 15 13 11 10 10 10 11 12 13 15 17 18 18 17 18 19 21 23 24 23 22 20 19 18 18 18 18 18 18 18 18 17 17 17 17 16 16 15 15
9 11 13 14 15 15 15 16 17 18 18 18 17 16 15 15 16 18 20 21 21 21 21 20 20 19 17 15 14 12 10 9 9 9 9 10 11 12 13 15 16 17 17 17 19 21 22 23 23 22 20 19 18 18 18 18 18 18 18 17 17 17 17 16 16 16 15 15 14
13 14 15 15 15 16 16 17 18 18 17 15 14 14 15 17 18 20 21 21 21 20 20 19 18 16 14 12 9 8 7 7 8 9 10 11 11 12 14 16 17 17 18 19 20 22 23 22 21 20 19 19 19 19 18 18 18 17 17 17 17 16 16 16 16 16 15 15 14
15 15 15 15 16 16 17 18 17 16 14 14 14 15 17 18 20 21 21 20 20 19 18 17 16 14 12 11 9 9 9 9 10 11 11 12 12 14 15 17 18 18 19 20 22 22 22 21 20 20 19 19 20 19 19 18 17 17 17 17 16 16 16 16 16 15 15 14 14
15 15 15 15 16 17 17 16 15 14 14 15 16 17 18 19 20 20 20 18 17 17 17 16 14 12 12 11 11 11 11 11 12 12 13 13 14 16 17 18 19 20 21 22 23 22 22 21 20 20 20 20 20 20 19 18 17 17 17 17 16 16 15 15 15 15 14 14 14
13 14 15 16 17 17 16 14 14 14 15 16 17 18 19 20 19 19 17 15 15 15 15 14 13 12 12 12 12 13 13 13 13 14 14 14 15 16 17 18 19 21 22 23 23 22 21 20 20 20 20 20 20 19 19 18 18 17 17 16 16 16 15 15 14 14 14 14 14
13 15 16 16 16 15 14 14 14 15 16 17 18 19 19 18 17 16 14 13 13 14 14 13 13 13 13 13 14 14 14 14 15 15 15 15 16 16 17 18 19 21 22 23 22 21 20 20 20 20 19 19 19 19 19 18 18 17 17 17 16 16 15 15 14 14 14 14 14
Wind_Direction
205 204 204 206 209 211 215 221 237 250 256 257 260 259 257 257 259 261 262 262 260 259 259 260 262 265 268 270 274 278 283 287 291 296 302 309 315 318 318 314 311 310 311 311 311 311 312 313 314 314 314 312 311 309 308 308 310 312 312 307 298 292 291 292 292 293 295 297 298
203 203 204 206 210 216 226 241 260 267 262 253 253 255 258 259 261 262 261 260 260 261 263 266 268 271 274 276 280 285 290 293 297 300 305 311 316 319 315 305 297 295 296 298 299 301 303 304 305 305 305 305 304 304 304 305 308 311 312 309 300 293 290 290 292 294 296 298 301
207 208 209 213 220 231 247 267 280 277 262 249 249 252 255 257 259 259 260 260 262 264 267 271 275 278 279 281 286 290 294 297 300 303 308 313 318 318 312 299 290 288 289 292 296 298 300 301 301 301 300 300 299 300 302 305 308 311 312 310 305 298 293 292 293 296 300 302 305
218 221 226 234 247 263 280 293 291 279 264 255 254 254 255 254 255 256 259 260 262 265 269 274 278 279 280 283 287 292 296 299 302 306 311 316 316 312 304 296 292 291 292 294 297 300 302 302 302 301 299 298 298 299 301 305 308 311 311 309 306 302 299 298 300 302 304 306 307
229 237 248 262 279 293 297 290 280 273 267 261 257 255 254 255 257 260 264 265 265 267 270 273 274 275 277 281 286 292 298 303 308 311 312 310 305 298 294 293 294 296 297 299 301 302 303 304 304 303 302 301 301 303 305 308 310 310 308 306 303 301 301 302 303 304 305 306 306
240 250 262 274 283 283 277 276 282 282 262 244 246 249 251 256 264 276 284 280 276 272 270 269 270 272 276 281 287 295 304 311 313 311 305 298 293 291 291 294 297 300 302 303 305 306 308 309 309 310 310 311 312 314 316 317 315 310 305 302 300 299 300 300 302 303 303 304 304
246 256 263 265 265 266 273 284 297 290 238 233 238 244 250 259 274 290 297 292 283 275 271 271 274 278 282 286 292 299 308 313 311 304 296 290 289 290 294 299 303 306 308 309 311 313 315 317 318 320 322 324 324 325 324 322 317 310 303 299 297 297 298 298 299 300 301 301 301
247 254 259 265 273 282 292 303 312 258 218 227 235 243 251 263 278 289 292 288 280 276 276 280 283 285 287 290 294 300 306 309 306 299 293 290 290 293 298 304 309 312 314 316 318 320 322 324 326 327 328 328 327 325 323 319 313 307 302 299 297 296 295 295 295 296 297 297 298
246 254 266 282 294 305 317 340 36 187 213 227 236 245 255 265 275 281 283 282 281 284 289 294 292 288 286 286 290 295 299 301 299 296 293 292 293 297 303 309 313 316 318 320 323 325 326 328 328 328 327 325 322 319 316 313 308 304 301 299 296 295 293 293 293 294 295 295 296
247 261 280 299 314 329 354 54 129 188 218 232 243 252 259 266 272 277 279 281 284 290 298 305 305 297 288 285 287 291 294 296 296 294 294 293 295 299 305 311 315 317 319 322 325 327 327 327 325 324 322 319 316 313 311 308 306 303 300 297 295 293 293 293 293 294 295 296 297
254 273 293 311 329 355 47 114 167 207 232 247 257 264 268 272 275 277 280 283 287 291 298 306 312 311 303 294 291 291 292 293 294 294 294 294 297 301 306 311 314 316 319 324 327 328 326 323 320 317 314 311 309 308 307 306 304 301 297 295 293 293 293 294 294 295 296 298 300
263 283 299 314 333 30 118 158 199 237 258 269 274 276 278 280 279 278 280 284 287 291 296 302 309 313 310 301 294 291 291 292 293 294 294 295 298 301 305 309 312 316 321 325 326 324 320 316 312 309 307 306 305 305 305 305 303 299 296 295 294 293 294 294 295 296 299 301 303
267 284 295 300 266 184 177 183 199 219 240 255 265 271 275 278 279 278 279 281 284 288 293 298 302 306 305 299 295 293 293 294 295 295 295 296 297 300 303 307 311 317 321 322 320 316 311 306 303 301 301 301 302 303 304 304 302 300 298 296 295 294 294 294 295 298 301 304 306
266 274 274 264 235 220 210 202 205 212 222 232 243 252 260 267 274 277 279 281 281 285 290 293 296 298 299 299 299 299 299 300 299 297 296 296 297 299 301 305 310 313 315 312 308 304 301 298 298 297 297 298 300 301 303 303 303 301 299 297 296 295 295 296 298 301 305 307 309
260 257 249 250 241 234 226 215 213 216 221 226 234 242 251 261 269 277 281 283 283 285 288 290 291 293 295 298 301 302 303 305 304 302 299 297 297 298 300 303 305 304 302 300 298 296 295 295 294 295 295 296 298 300 301 303 303 301 300 299 298 298 299 300 303 306 308 310 311
253 250 247 245 242 238 231 223 222 224 227 231 238 247 256 266 274 280 284 286 286 287 287 288 288 290 292 295 298 300 302 304 306 305 303 300 299 298 297 296 294 293 292 292 293 294 294 293 293 293 294 295 297 299 300 302 302 301 300 300 300 301 302 304 306 307 309 310 312
253 256 257 251 244 236 228 225 229 234 238 243 250 258 267 275 280 285 288 290 290 289 288 287 286 287 288 290 292 296 300 302 305 306 306 304 301 297 292 288 287 287 289 292 294 295 294 293 292 292 293 294 296 297 299 300 300 300 300 300 300 302 303 304 306 307 309 310 312
266 267 264 253 240 228 224 229 237 244 251 257 262 267 273 278 284 288 291 292 292 292 291 289 287 285 285 286 289 293 297 300 303 305 305 303 299 292 287 284 284 287 290 293 294 295 294 293 292 292 292 292 294 295 296 296 297 297 297 298 299 300 302 303 305 307 309 311 313
275 272 262 244 226 219 224 234 242 250 257 262 265 269 274 280 286 290 291 292 292 292 291 290 288 285 283 285 287 291 295 298 301 303 302 298 292 287 284 283 284 287 290 293 294 294 293 292 290 289 288 289 292 293 294 294 295 295 296 297 298 299 301 303 305 308 310 312 313
275 267 246 215 209 215 225 232 239 247 256 263 269 274 280 285 289 290 290 290 290 290 289 288 286 284 284 285 287 290 293 296 298 298 296 291 286 283 282 283 285 287 289 291 292 291 290 289 286 285 286 289 293 295 296 296 297 297 298 298 299 300 302 305 307 310 312 313 313
264 233 193 191 206 215 220 226 235 246 258 269 276 281 285 287 288 288 289 290 290 290 289 288 286 285 285 286 287 289 291 293 293 292 289 286 282 280 281 283 285 287 288 289 290 289 287 284 283 283 287 293 297 299 300 301 302 302 301 301 301 303 305 308 310 312 313 313 313
214 178 181 200 210 215 218 226 239 254 267 275 280 283 285 286 286 287 290 293 294 294 294 293 291 290 288 288 288 289 290 290 289 287 284 282 281 280 281 283 285 287 287 289 289 288 285 282 282 286 293 300 303 304 305 305 305 304 304 303 304 306 309 311 312 313 313 313 313
181 185 197 205 211 215 222 234 250 265 274 278 282 284 286 288 288 290 294 297 298 298 298 297 296 295 294 292 291 291 290 290 288 285 283 281 281 281 282 284 285 287 289 292 291 288 285 284 288 296 302 305 306 306 307 306 306 305 305 306 308 310 312 313 313 313 313 313 313
192 199 204 208 214 222 234 249 263 273 277 279 282 284 287 290 293 296 297 298 297 296 296 295 295 296 297 297 296 294 293 291 288 286 284 282 281 281 282 284 286 290 294 296 294 291 289 293 300 305 307 307 308 308 308 307 307 307 309 310 312 313 314 314 314 313 313 313 314
201 206 209 214 222 234 248 263 272 273 274 277 278 279 283 290 295 296 295 294 291 290 288 289 290 291 293 294 294 294 293 292 290 288 286 283 282 281 282 285 289 294 297 297 296 294 297 303 308 309 308 308 309 310 309 309 310 311 312 313 314 315 315 314 314 313 313 313 315
205 208 214 221 230 242 257 264 265 264 265 266 269 274 281 289 292 291 290 289 287 286 286 287 288 288 288 289 289 290 291 291 290 288 285 282 281 282 283 285 290 294 296 297 296 298 303 308 308 308 308 310 311 311 311 312 312 313 314 315 315 316 315 315 314 314 314 313 312
207 211 217 225 232 242 249 251 252 253 255 259 266 274 281 286 287 288 287 287 287 287 288 289 290 290 289 288 288 289 290 290 289 285 282 280 280 280 282 284 289 293 295 296 296 298 302 306 307 308 310 311 312 313 313 313 314 314 315 316 316 316 316 315 315 314 314 312 309
209 214 220 224 228 233 237 241 244 248 254 263 273 279 282 285 286 287 287 289 290 292 293 294 295 295 294 292 290 290 290 289 285 282 279 278 278 278 280 283 289 293 296 297 296 296 298 302 305 308 311 312 313 314 314 314 315 315 316 317 317 317 317 317 316 315 314 310 307
209 212 214 217 223 228 234 240 247 254 263 273 279 281 283 284 286 288 291 294 296 297 298 298 299 299 298 296 294 291 288 286 282 280 278 277 276 277 280 285 291 295 297 297 295 294 294 298 303 307 310 312 314 315 315 316 316 316 317 318 319 319 320 320 319 317 314 311 308
207 207 211 218 223 231 241 251 258 265 274 279 281 281 283 285 288 293 297 300 302 302 301 301 301 300 298 297 295 291 287 284 282 279 276 275 277 279 283 288 293 297 298 297 295 293 293 296 302 307 311 314 316 316 317 316 317 318 319 320 321 322 323 323 322 320 317 314 312
208 215 224 229 235 247 255 261 268 273 277 278 279 282 284 289 294 298 302 304 305 304 303 301 300 299 297 296 295 292 289 285 281 276 273 275 280 282 285 290 295 297 298 297 295 293 294 298 304 310 314 316 317 317 317 317 318 320 321 323 324 325 326 326 325 324 322 320 318
221 229 236 243 254 261 264 267 271 274 275 277 281 285 290 294 298 302 304 305 305 303 302 301 299 298 298 297 295 293 289 283 275 270 270 276 281 283 285 289 294 297 297 295 294 294 298 304 310 314 316 317 317 316 316 317 320 322 324 325 326 328 328 329 328 327 326 325 324
230 238 249 262 268 269 268 269 271 272 276 281 286 291 295 299 301 302 302 303 302 302 301 301 301 300 299 298 294 290 283 276 270 268 271 278 280 281 283 286 292 294 293 293 294 298 304 310 313 316 317 316 316 316 317 319 322 325 326 328 328 329 329 330 330 330 329 328 327
233 250 267 275 274 273 271 271 273 276 282 287 292 296 298 300 301 301 301 301 300 301 300 301 301 301 300 297 292 285 277 272 269 270 274 277 277 277 278 282 288 290 290 292 297 304 309 313 315 316 316 316 315 316 319 322 325 327 329 329 330 330 330 331 331 331 330 329 329
256 276 283 282 280 276 275 275 279 284 290 294 297 299 299 300 300 299 300 300 300 300 300 301 302 302 300 295 288 281 276 273 273 274 274 273 272 272 274 279 284 287 290 295 302 308 312 314 315 317 317 317 317 320 323 326 327 329 330 331 331 331 332 332 333 333 332 331 331
284 290 290 286 283 280 279 282 287 292 296 298 299 300 300 299 298 298 299 299 299 300 301 303 303 302 298 293 287 281 277 276 275 274 272 271 272 273 277 281 285 289 294 301 306 310 313 314 316 318 319 320 321 324 326 328 329 331 331 332 332 332 333 334 335 334 333 333 334
296 296 293 289 285 284 286 290 294 297 299 299 299 299 298 298 298 298 299 300 300 301 302 304 303 299 293 287 282 278 275 276 278 278 279 280 282 283 285 288 292 295 300 304 308 311 313 315 318 321 322 323 324 326 328 329 330 332 332 333 333 334 335 336 337 336 335 334 337
301 299 295 291 289 290 293 296 298 299 298 297 297 297 297 297 298 299 300 301 302 303 304 304 299 292 284 277 273 273 276 282 286 289 289 290 290 291 292 294 297 299 302 305 307 309 313 317 321 323 324 325 325 326 328 329 331 333 334 334 335 336 337 338 338 337 336 337 341
301 298 295 293 293 295 297 297 297 296 296 296 297 297 298 298 299 300 301 302 304 305 304 301 294 286 278 275 275 279 286 291 294 295 294 292 292 293 294 296 298 300 301 302 304 307 312 318 322 324 325 324 324 325 327 329 331 334 335 336 337 338 338 339 339 338 338 340 345
298 296 295 295 296 296 296 295 294 294 295 297 298 299 300 300 301 301 302 303 305 305 302 295 288 283 280 281 285 290 295 297 297 296 294 293 294 295 296 297 298 298 299 299 300 304 310 318 322 323 323 322 322 324 326 329 332 334 336 337 337 338 339 340 340 340 341 343 347
296 295 295 295 295 293 292 292 292 294 297 299 299 300 301 301 301 301 302 305 307 303 297 290 285 283 285 288 293 297 299 299 297 297 296 295 295 295 295 295 296 295 294 294 296 301 308 315 320 321 320 319 320 322 325 328 331 334 336 337 338 338 339 340 340 342 344 346 350